Terminal Aerodrome Forecast
Issued by NWS El Paso, TX

Home | Current Version | Previous Version | Text Only | Print | Product List | Glossary On
Versions: 1 2 3 4 5 6 7 8 9 10 11 12 13 14
000
FTUS44 KEPZ 170500
TAFELP
TAF
KELP 170520Z 1706/1806 30008KT P6SM FEW150 SCT250
     FM170900 30005KT P6SM FEW250
     FM171400 08009KT P6SM FEW250=

USA.gov is the U.S. government's official web portal to all federal, state and local government web resources and services.